Terug naar catalogus

SL-12 R/B

AUX MOTOR

ActiefHEO
NORAD 33384·ROCKET BODY·🇷🇺 Russia

Gelanceerd Sep 25, 2008 vanaf Baikonur Cosmodrome

Loading…

Volgende Passages (komende 24 uur)

TLE

VersSource: Space-Track

Epoch: Sep 8, 2026, 05:38 UTC

1 33384U 08046G   26251.23484277  .00000049  00000-0  54732-3 0  9999
2 33384  65.3024   8.1030 5663219 231.6062  62.6601  4.23399042277415

Volg SL-12 R/B in realtime met AllMySat

Download on the App Store